Torna al catalogo

STARLINK-32389

AttivoComunicazioniVLEO
NORAD 61549·PAYLOAD·🇺🇸 United States

Lanciato Oct 15, 2024 da Vandenberg Space Force Base

Loading…

Prossimi Passaggi (prossime 24 ore)

TLE

AggiornatoSource: CelesTrak SupGP

Epoca: Sep 14, 2026, 21:02 UTC

1 61549C 24184T   26257.87687500  .00038684  00000+0  11420-2 0  2572
2 61549  53.1592 213.7112 0001440  90.9965 254.4737 15.34395958    11

Traccia STARLINK-32389 in tempo reale con AllMySat

Download on the App Store